Regional Weather Roundup
Issued by NWS Boston, MA

Current Version | Previous Version | Text Only | Print | Product List | Glossary On
Versions: 1 2 3 4 5 6 7 8 9 10 11 12 13 14 15 16 17 18 19 20 21 22 23 24 25 26 27 28 29 30 31 32 33 34 35 36 37 38 39 40 41 42 43 44 45 46 47 48 49 50
000
ASUS41 KBOX 270810
RWRBOX

REGIONAL WEATHER ROUNDUP
NATIONAL WEATHER SERVICE TAUNTON MA
400 AM EDT WED MAY 27 2015

NOTE:  "FAIR" INDICATES FEW OR NO CLOUDS BELOW 12,000 FEET WITH NO
SIGNIFICANT WEATHER AND/OR OBSTRUCTIONS TO VISIBILITY.  THE FOLLOWING
OBSERVATION LOCATIONS DO NOT REPORT PRESENT WEATHER...PROVINCETOWN...
SMITHFIELD...BLOCK ISLAND...KEENE...AND OXFORD.

MAZALL-270900-
EASTERN MASSACHUSETTS

CITY           SKY/WX    TMP DP  RH WIND       PRES   REMARKS
BOSTON         CLOUDY    66  60  81 SW13      30.14S
BEVERLY        MOCLDY    68  59  73 SW9       30.12S
LAWRENCE       MOCLDY    69  60  73 SW9       30.13S
BEDFORD        MOCLDY    66  59  78 SW10      30.12F
BLUE HILL        N/A     62  59  90 S15G23    30.15S
NORWOOD        MOCLDY    64  60  87 S8        30.15S
MARSHFIELD     CLOUDY    64  61  88 SW10G21   30.16F
PLYMOUTH       PTCLDY    63  59  87 SW10G20   30.18F
TAUNTON        PTCLDY    63  59  87 S5        30.18S
NEW BEDFORD    PTCLDY    59  57  93 SW9       30.19S
$$

MAZALL-270900-
CAPE COD AND THE ISLANDS

CITY           SKY/WX    TMP DP  RH WIND       PRES   REMARKS
FALMOUTH       MOCLDY    61  59  94 SW14G21   30.20F
HYANNIS        PTCLDY    61  59  93 SW15      30.19S
CHATHAM        CLOUDY    60  59  96 SW12G18   30.21F
PROVINCETOWN   MOCLDY    59  55  88 SW15G21   30.18S
NANTUCKET      PTCLDY    59  57  93 SW14      30.23F
MARTHAS VNYRD  CLOUDY    59  58  96 SW10      30.22S FOG
$$

MAZALL-270900-
CENTRAL AND WESTERN MASSACHUSETTS

CITY           SKY/WX    TMP DP  RH WIND       PRES   REMARKS
WORCESTER      PTCLDY    64  58  80 SW10      30.16F
FITCHBURG      PTCLDY    69  60  73 S8        30.13F
ORANGE         CLEAR     63  59  87 S6        30.14S
SPRINGFIELD    CLEAR     64  60  86 S9        30.13F
WESTFIELD      PTCLDY    63  58  83 S6        30.14S
NORTH ADAMS    CLOUDY    70  62  76 SE7       30.11
PITTSFIELD     PTCLDY    63  61  93 CALM      30.13S FOG
$$

RIZALL-270900-
RHODE ISLAND

CITY           SKY/WX    TMP DP  RH WIND       PRES   REMARKS
PROVIDENCE     PTCLDY    63  59  87 S3        30.18S
NEWPORT        PTCLDY    59  57  93 S8        30.19F
BLOCK ISLAND   CLEAR     59  55  88 SW13      30.21S
SMITHFIELD     PTCLDY   N/A N/A N/A SW3       30.17S
WESTERLY       PTCLDY    61  57  87 S7        30.19F
$$

CTZALL-270900-
CONNECTICUT

CITY           SKY/WX    TMP DP  RH WIND       PRES   REMARKS
BRADLEY INTL   PTCLDY    65  59  81 S7        30.14S
HARTFORD       PTCLDY    65  60  84 S8        30.15S
BRIDGEPORT     PTCLDY    64  59  83 SW3       30.16S
DANBURY        CLEAR     66  59  78 S5        30.16F
GROTON         PTCLDY    60  57  89 S3        30.18F
NEW HAVEN      MOCLDY    62  59  90 S3        30.16F
CHESTER        FAIR      64  61  88 S7        30.18F
MERIDEN        PTCLDY    65  60  84 S5        30.16S
WILLIMANTIC    PTCLDY    66  60  81 S3        30.17S
OXFORD         PTCLDY    64  57  77 S3        30.18F
$$

MEZ002-015-021-024-NHZ003-005-008-011-012-014-VTZ005-008-270900-
NORTHERN NEW ENGLAND

CITY           SKY/WX    TMP DP  RH WIND       PRES   REMARKS
PORTLAND ME    PTCLDY    66  61  84 S3        30.08F
BANGOR ME      PTCLDY    58  56  93 S3        30.07S
CONCORD NH     MOCLDY    70  62  76 SE5       30.10S
MANCHESTER NH  CLOUDY    70  62  76 S8        30.09F
NASHUA NH      PTCLDY    71  63  76 VRB3      30.12S
PORTSMOUTH NH  CLOUDY    71  62  72 SW7       30.08F
JAFFREY NH     MOCLDY    64  60  87 SW3       30.15S
KEENE NH       CLEAR    N/A N/A N/A S9        30.13S
BURLINGTON VT  LGT RAIN  74  64  71 S12       30.02S
MT. WASHINGTON FOG       52  52 100 W41         N/A  VSB 1/16
$$

NYZ052-076-270900-
EASTERN NEW YORK

CITY           SKY/WX    TMP DP  RH WIND       PRES   REMARKS
ALBANY         MOCLDY    72  63  73 S12       30.08S
NEW YORK CITY  PTCLDY    69  60  73 S7        30.14F
$$

ANZALL-270900-
MARINE OBSERVATIONS

STATION/POSITION TIME  TEMP    WIND        PRES    VSBY  WAVE
                       AIR SEA DIR/SP/G                  HT/PER
                 (UTC) (F)     (DEG/KT/KT) (MB)    (MI)  (FT/S)
BOSTON BUOY      0750   58 53  210/  8/ 10   N/A           1/ 6
BUZZARDS BAY     0800          200/ 14/ 15   N/A
NANTUCKET SOUND  0750   60 59  230/ 16/ 17   N/A           1/ 3
MASS BAY-STELLWA 0704   55 50  190/  8/ 10   N/A    1 7/8  2/ 5
ISLE OF SHOALS   0800   68     210/ 15/ 16   N/A
S OF BLOCK IS    0708      55                N/A           4/ 5
$$

......................KEY.........................
  SKY/WX - SKY CONDITION/PRESENT WEATHER
  TMP    - TEMPERATURE IN FAHRENHEIT
  DWPT   - DEWPOINT IN FAHRENHEIT
  RH     - RELATIVE HUMIDITY IN PERCENT
  WIND   - DIRECTION AND SPEED IN MPH
  PRES   - MEAN SEA LEVEL PRESSURE IN INCHES OF HG
  WCI    - WIND CHILL INDEX
  VSB    - VISIBILITY IN MILES
  HX     - HEAT INDEX
  TC     - TEMPERATURE IN CELSIUS
  VRB    - VARIABLE WIND DIRECTION
  N/A    - NOT AVAILABLE


USA.gov is the U.S. government's official web portal to all federal, state and local government web resources and services.